User: anonymous   Login
Location: NJAA Observatory
(40.6819°N, 74.8979°W)
Time: 22:44:12
(UTC-04:00)
Language:

Cosmos 1633 - Orbit

View from above orbital plane
View from above orbital plane
View from above satellite
View from above satellite

Ground track
Ground track

The orbit data is extracted from the following two-line orbital elements,

1 15592U 85020A   17087.92017517 +.00003375 +00000-0 +12114-3 0  9992
2 15592 082.5399 039.7145 0015565 099.8587 260.4410 15.28204899751757
Epoch (UTC): 28 March 2017 22:05:03
Eccentricity: 0.0015565
inclination: 82.5399°
perigee height: 470 km
apogee height: 492 km
right ascension of ascending node: 39.7145°
argument of perigee: 99.8587°
revolutions per day: 15.28204899
mean anomaly at epoch: 260.4410°
orbit number at epoch: 75175

The dashed part of the orbit path shows where the satellite is in the earth's shadow,  

DLR